sat.trackr.live / text

‹ back to catalog

STARLINK-4756

NORAD 53826 · 2022-114J

PAYLOAD ACTIVE UNKNOWN

§ Identity

Operator
Country
US
Launch date
2022-09-19
Launch site
AFETR
Launch vehicle
Mass (kg)
RCS (m²)

Purposes: comms

External: N2YO · Heavens-Above · Gunter

§ Orbital elements

Epoch: 2026-05-24T21:00:50.081760Z

Period
95.44 min
Inclination
53.2144°
Eccentricity
0.0001304
Mean motion
15.08841594 rev/d
Perigee alt
538.8 km
Apogee alt
540.6 km
Semi-major
6,917.9 km
B*
3.4839e-5
RAAN
322.0532°
Arg perigee
88.3806°
Mean anomaly
271.7336°
Rev number
20,433

§ Raw data

STARLINK-47561 53826U 22114J   26144.87557965  .00000267  00000+0  34839-4 0  99982 53826  53.2144 322.0532 0001304  88.3806 271.7336 15.08841594204339

JSON: /api/v1/satellites/53826 · /tle

For live sub-satellite position, see the globe view (requires WebGL).

§ Visibility from observer

Set your observer location to see the next 7 days of passes ≥ 10°. The values pass through the URL so the page stays shareable.

No JS? Fill the form by hand. The geolocation button needs JavaScript.